Home   Weather   Banning   Past weeks
Flag for USA

Past Weather in Banning, California, USA — Yesterday and Last 2 Weeks

Now
63 °F

Clear.


Feels Like: 63 °F
Forecast: 75 / 45 °F
Wind: 3 mph from West

Location: Riverside / March Air Force Base

Current Time: Oct 13, 2019 at 8:30:42 pm

Latest Report: Oct 13, 2019 at 7:58 pm


Visibility: 10 mi

Pressure: 29.85 "Hg (27.45 "Hg at 713m altitude)

Humidity: 74%

Dew Point: 55 °F

Location of BanningLocation

Past Weather in Banning — Graph

°F

Banning Temperature Yesterday

Maximum temperature yesterday: 85 °F (at 2:58 pm)
Minimum temperature yesterday: 40 °F (at 6:58 am)
Average temperature yesterday: 64 °F

High & Low Weather Summary for the Past Weeks

 TemperatureHumidityPressure
High94 °F (Oct 6, 2:58 pm)100% (Sep 28, 8:28 pm)30.06 "Hg (Sep 28, 8:28 pm)
Low40 °F (Oct 12, 6:58 am)3% (Oct 11, 12:58 pm)29.73 "Hg (Sep 28, 5:58 pm)
Average63 °F51%29.89 "Hg
* Reported Sep 28 5:58 pm — Oct 13 5:58 pm, Banning. Weather by CustomWeather, © 2019

Note: Actual official high and low records may vary slightly from our data, if they occured in-between our weather recording intervals... More about our weather records

Advertising

Banning Weather History for the Previous 24 Hours

Scroll right to see more
 ConditionsComfort  
Time TempWeatherWind HumidityBarometerVisibility
5:58 pm
Sun, Oct 13
71 °FSunny.8 mph45%29.82 "Hg10 mi
4:58 pm76 °FSunny.12 mph35%29.80 "Hg10 mi
3:58 pm78 °FSunny.12 mph28%29.80 "Hg10 mi
2:58 pm80 °FSunny.13 mph24%29.80 "Hg10 mi
1:58 pm80 °FSunny.9 mph20%29.80 "Hg10 mi
12:58 pm79 °FSunny.7 mph21%29.83 "Hg10 mi
11:58 am77 °FSunny.9 mph24%29.85 "Hg10 mi
10:58 am75 °FSunny.No wind18%29.86 "Hg10 mi
9:58 am69 °FSunny.No wind26%29.87 "Hg10 mi
8:58 am60 °FSunny.No wind38%29.87 "Hg10 mi
7:58 am52 °FSunny.No wind51%29.86 "Hg8 mi
6:58 am44 °FSunny.No wind66%29.85 "Hg10 mi
5:58 am43 °FClear.No wind57%29.83 "Hg10 mi
4:58 am43 °FClear.No wind57%29.83 "Hg10 mi
3:58 am45 °FClear.No wind56%29.83 "Hg10 mi
2:58 am48 °FClear.No wind56%29.84 "Hg10 mi
1:58 am49 °FClear.No wind59%29.85 "Hg10 mi
12:58 am49 °FClear.No wind59%29.85 "Hg10 mi
10:58 pm
Sat, Oct 12
57 °FClear.No wind50%29.85 "Hg10 mi
9:58 pm62 °FClear.6 mph42%29.86 "Hg10 mi
8:58 pm66 °FClear.5 mph36%29.87 "Hg10 mi
Weather by CustomWeather, © 2019

See weather overview